This is the latest recevied weather packets stored in our database for station/object OE6JUE. If no packets are shown the sender has not sent any weather packets the latest 10 day(s).
| Time | Temp. | Humidity | Pressure | Rain* | Wind** | Luminosity | Snow |
|---|---|---|---|---|---|---|---|
| 1777969632 | 23.89° C | 31% | 1012.2 hPa | 0 mm | - | - | - |
| 1777969332 | 23.89° C | 31% | 1012.2 hPa | 0 mm | - | - | - |
| 1777969032 | 23.33° C | 31% | 1012.2 hPa | 0 mm | - | - | - |
| 1777968733 | 23.33° C | 32% | 1012.2 hPa | 0 mm | - | - | - |
| 1777968432 | 22.78° C | 32% | 1012.4 hPa | 0 mm | - | - | - |
| 1777968132 | 23.33° C | 31% | 1012.3 hPa | - | - | - | - |
| 1777967833 | 23.33° C | 32% | 1012.3 hPa | 0 mm | - | - | - |
| 1777967532 | 22.78° C | 33% | 1012.4 hPa | 0 mm | - | - | - |
| 1777967232 | 22.78° C | 34% | 1012.2 hPa | 0 mm | - | - | - |
| 1777966932 | 22.22° C | 37% | 1012.4 hPa | 0 mm | - | - | - |
| 1777966632 | 22.78° C | 33% | 1012.4 hPa | 0 mm | - | - | - |
| 1777966332 | 22.78° C | 33% | 1012.5 hPa | 0 mm | - | - | - |
| 1777966032 | 22.78° C | 32% | 1012.5 hPa | 0 mm | - | - | - |
| 1777965733 | 23.33° C | 32% | 1012.5 hPa | 0 mm | - | - | - |
| 1777965432 | 22.78° C | 34% | 1012.5 hPa | 0 mm | - | - | - |
| 1777965132 | 22.22° C | 40% | 1012.5 hPa | 0 mm | - | - | - |
| 1777964832 | 21.11° C | 38% | 1012.6 hPa | 0 mm | - | - | - |
| 1777964532 | 21.11° C | 40% | 1012.7 hPa | - | - | - | - |
| 1777964232 | 21.11° C | 40% | 1012.7 hPa | 0 mm | - | - | - |
| 1777963932 | 21.11° C | 40% | 1012.8 hPa | 0 mm | - | - | - |
| 1777963632 | 20.56° C | 42% | 1012.9 hPa | 0 mm | - | - | - |
| 1777963332 | 20.56° C | 43% | 1012.7 hPa | 0 mm | - | - | - |
| 1777963032 | 20.56° C | 41% | 1012.8 hPa | 0 mm | - | - | - |
| 1777962732 | 20.56° C | 42% | 1012.8 hPa | 0 mm | - | - | - |
| 1777962432 | 20.56° C | 41% | 1012.8 hPa | 0 mm | - | - | - |
* Rain latest hour (hover to see other rain measurements)
** Current wind speed in m/s (hover to see current wind gust speed)